Time,TemperatureF,DewpointF,PressureIn,WindDirection,WindDirectionDegrees,WindSpeedMPH,WindSpeedGustMPH,Humidity,HourlyPrecipIn,Conditions,Clouds,dailyrainin,SoftwareType,DateUTC
2013-05-02 00:00:00,71.1,52.1,30.09,East,96,2.0,8.0,51,0.00,,---,0.00,VWS V14.01,2013-05-02 04:00:00,
2013-05-02 00:01:00,71.1,52.1,30.09,East,101,6.0,6.0,51,0.00,,---,0.00,VWS V14.01,2013-05-02 04:01:00,
2013-05-02 00:06:00,70.8,52.3,30.09,East,97,5.0,9.0,52,0.00,,---,0.00,VWS V14.01,2013-05-02 04:06:00,
2013-05-02 00:11:00,70.6,52.1,30.09,East,86,3.0,9.0,52,0.00,,---,0.00,VWS V14.01,2013-05-02 04:11:00,
2013-05-02 00:16:00,70.3,52.4,30.09,East,93,7.0,9.0,53,0.00,,---,0.00,VWS V14.01,2013-05-02 04:16:00,
2013-05-02 00:21:00,70.1,52.2,30.09,East,89,3.0,9.0,53,0.00,,---,0.00,VWS V14.01,2013-05-02 04:21:00,
2013-05-02 00:26:00,70.1,52.2,30.09,East,100,2.0,9.0,53,0.00,,---,0.00,VWS V14.01,2013-05-02 04:26:00,
2013-05-02 00:30:00,70.1,52.2,30.09,East,82,3.0,9.0,53,0.00,,---,0.00,VWS V14.01,2013-05-02 04:30:00,
2013-05-02 00:31:00,70.1,52.2,30.09,East,85,5.0,7.0,53,0.00,,---,0.00,VWS V14.01,2013-05-02 04:31:00,
2013-05-02 00:36:00,70.1,52.2,30.09,ESE,105,3.0,8.0,53,0.00,,---,0.00,VWS V14.01,2013-05-02 04:36:00,
2013-05-02 00:41:00,70.1,52.2,30.09,East,98,8.0,9.0,53,0.00,,---,0.00,VWS V14.01,2013-05-02 04:41:00,
2013-05-02 00:46:00,69.9,52.0,30.09,East,87,2.0,9.0,53,0.00,,---,0.00,VWS V14.01,2013-05-02 04:46:00,
2013-05-02 00:51:00,69.8,52.4,30.09,East,96,3.0,9.0,54,0.00,,---,0.00,VWS V14.01,2013-05-02 04:51:00,
2013-05-02 00:56:00,69.8,52.4,30.09,East,89,3.0,9.0,54,0.00,,---,0.00,VWS V14.01,2013-05-02 04:56:00,
2013-05-02 01:00:00,69.6,52.2,30.09,East,100,5.0,9.0,54,0.00,,---,0.00,VWS V14.01,2013-05-02 05:00:00,
2013-05-02 01:01:00,69.6,52.2,30.09,East,100,7.0,7.0,54,0.00,,---,0.00,VWS V14.01,2013-05-02 05:01:00,
2013-05-02 01:06:00,69.4,52.0,30.10,ESE,111,2.0,8.0,54,0.00,,---,0.00,VWS V14.01,2013-05-02 05:06:00,
2013-05-02 01:11:00,69.3,52.5,30.10,East,92,5.0,8.0,55,0.00,,---,0.00,VWS V14.01,2013-05-02 05:11:00,
2013-05-02 01:16:00,69.1,52.3,30.10,East,87,5.0,8.0,55,0.00,,---,0.00,VWS V14.01,2013-05-02 05:16:00,
2013-05-02 01:21:00,68.9,52.6,30.09,ENE,78,2.0,8.0,56,0.00,,---,0.00,VWS V14.01,2013-05-02 05:21:00,
2013-05-02 01:26:00,68.6,52.3,30.09,East,80,5.0,8.0,56,0.00,,---,0.00,VWS V14.01,2013-05-02 05:26:00,
2013-05-02 01:30:00,68.4,52.1,30.09,ESE,107,4.0,8.0,56,0.00,,---,0.00,VWS V14.01,2013-05-02 05:30:00,
2013-05-02 01:31:00,68.4,52.1,30.09,ESE,104,4.0,7.0,56,0.00,,---,0.00,VWS V14.01,2013-05-02 05:31:00,
2013-05-02 01:36:00,68.3,52.5,30.09,ENE,77,7.0,8.0,57,0.00,,---,0.00,VWS V14.01,2013-05-02 05:36:00,
2013-05-02 01:41:00,68.3,52.5,30.09,East,95,3.0,8.0,57,0.00,,---,0.00,VWS V14.01,2013-05-02 05:41:00,
2013-05-02 01:46:00,68.1,52.3,30.09,ENE,76,5.0,8.0,57,0.00,,---,0.00,VWS V14.01,2013-05-02 05:46:00,
2013-05-02 01:51:00,68.1,52.3,30.09,ESE,107,7.0,8.0,57,0.00,,---,0.00,VWS V14.01,2013-05-02 05:51:00,
2013-05-02 01:56:00,68.1,52.3,30.09,ESE,103,4.0,9.0,57,0.00,,---,0.00,VWS V14.01,2013-05-02 05:56:00,
2013-05-02 02:00:00,68.1,52.3,30.09,East,98,6.0,9.0,57,0.00,,---,0.00,VWS V14.01,2013-05-02 06:00:00,
2013-05-02 02:01:00,68.1,52.3,30.09,East,84,8.0,8.0,57,0.00,,---,0.00,VWS V14.01,2013-05-02 06:01:00,
2013-05-02 02:06:00,68.1,51.8,30.09,East,90,7.0,9.0,56,0.00,,---,0.00,VWS V14.01,2013-05-02 06:06:00,
2013-05-02 02:11:00,67.9,51.6,30.09,ESE,111,4.0,10.0,56,0.00,,---,0.00,VWS V14.01,2013-05-02 06:11:00,
2013-05-02 02:16:00,67.6,52.3,30.09,ESE,113,8.0,11.0,58,0.00,,---,0.00,VWS V14.01,2013-05-02 06:16:00,
2013-05-02 02:21:00,67.4,52.1,30.08,East,101,7.0,11.0,58,0.00,,---,0.00,VWS V14.01,2013-05-02 06:21:00,
2013-05-02 02:26:00,67.3,52.0,30.08,ESE,115,8.0,11.0,58,0.00,,---,0.00,VWS V14.01,2013-05-02 06:26:00,
2013-05-02 02:30:00,67.1,51.8,30.08,ESE,113,8.0,11.0,58,0.00,,---,0.00,VWS V14.01,2013-05-02 06:30:00,
2013-05-02 02:31:00,67.1,51.8,30.08,ESE,117,9.0,9.0,58,0.00,,---,0.00,VWS V14.01,2013-05-02 06:31:00,
2013-05-02 02:36:00,66.9,51.7,30.08,ESE,116,10.0,11.0,58,0.00,,---,0.00,VWS V14.01,2013-05-02 06:36:00,
2013-05-02 02:41:00,66.9,51.7,30.08,ESE,117,7.0,11.0,58,0.00,,---,0.00,VWS V14.01,2013-05-02 06:41:00,
2013-05-02 02:46:00,66.8,52.0,30.08,SE,127,6.0,11.0,59,0.00,,---,0.00,VWS V14.01,2013-05-02 06:46:00,
2013-05-02 02:51:00,66.8,51.6,30.08,SE,130,9.0,11.0,58,0.00,,---,0.00,VWS V14.01,2013-05-02 06:51:00,
2013-05-02 02:56:00,66.8,52.0,30.08,SE,125,8.0,11.0,59,0.00,,---,0.00,VWS V14.01,2013-05-02 06:56:00,
2013-05-02 03:00:00,66.6,51.8,30.08,ESE,117,9.0,11.0,59,0.00,,---,0.00,VWS V14.01,2013-05-02 07:00:00,
2013-05-02 03:01:00,66.6,51.8,30.08,SE,124,9.0,10.0,59,0.00,,---,0.00,VWS V14.01,2013-05-02 07:01:00,
2013-05-02 03:06:00,66.4,51.7,30.08,SE,124,8.0,10.0,59,0.00,,---,0.00,VWS V14.01,2013-05-02 07:06:00,
2013-05-02 03:11:00,66.4,51.7,30.08,ESE,119,7.0,10.0,59,0.00,,---,0.00,VWS V14.01,2013-05-02 07:11:00,
2013-05-02 03:16:00,66.4,51.7,30.08,SE,124,8.0,11.0,59,0.00,,---,0.00,VWS V14.01,2013-05-02 07:16:00,
2013-05-02 03:21:00,66.4,51.7,30.08,ESE,119,9.0,11.0,59,0.00,,---,0.00,VWS V14.01,2013-05-02 07:21:00,
2013-05-02 03:26:00,66.3,51.6,30.08,ESE,123,10.0,11.0,59,0.00,,---,0.00,VWS V14.01,2013-05-02 07:26:00,
2013-05-02 03:30:00,66.3,51.6,30.08,ESE,119,10.0,11.0,59,0.00,,---,0.00,VWS V14.01,2013-05-02 07:30:00,
2013-05-02 03:31:00,66.3,51.6,30.08,SE,132,7.0,10.0,59,0.00,,---,0.00,VWS V14.01,2013-05-02 07:31:00,
2013-05-02 03:36:00,66.1,51.4,30.08,SE,132,7.0,11.0,59,0.00,,---,0.00,VWS V14.01,2013-05-02 07:36:00,
2013-05-02 03:41:00,66.1,51.4,30.09,SE,128,6.0,11.0,59,0.00,,---,0.00,VWS V14.01,2013-05-02 07:41:00,
2013-05-02 03:46:00,66.0,51.3,30.09,SE,132,7.0,11.0,59,0.00,,---,0.00,VWS V14.01,2013-05-02 07:46:00,
2013-05-02 03:51:00,66.0,51.3,30.09,SE,128,6.0,11.0,59,0.00,,---,0.00,VWS V14.01,2013-05-02 07:51:00,
2013-05-02 03:56:00,65.8,51.5,30.09,SE,131,6.0,11.0,60,0.00,,---,0.00,VWS V14.01,2013-05-02 07:56:00,
2013-05-02 04:00:00,65.8,51.5,30.09,SE,124,4.0,11.0,60,0.00,,---,0.00,VWS V14.01,2013-05-02 08:00:00,
2013-05-02 04:01:00,65.8,51.5,30.09,SE,132,5.0,7.0,60,0.00,,---,0.00,VWS V14.01,2013-05-02 08:01:00,
2013-05-02 04:06:00,65.6,51.4,30.09,SE,133,5.0,7.0,60,0.00,,---,0.00,VWS V14.01,2013-05-02 08:06:00,
2013-05-02 04:11:00,65.5,51.3,30.09,SE,133,5.0,7.0,60,0.00,,---,0.00,VWS V14.01,2013-05-02 08:11:00,
2013-05-02 04:16:00,65.3,51.1,30.09,SE,134,6.0,7.0,60,0.00,,---,0.00,VWS V14.01,2013-05-02 08:16:00,
2013-05-02 04:21:00,65.3,51.1,30.09,SE,128,5.0,7.0,60,0.00,,---,0.00,VWS V14.01,2013-05-02 08:21:00,
2013-05-02 04:26:00,65.2,51.4,30.09,ESE,121,7.0,8.0,61,0.00,,---,0.00,VWS V14.01,2013-05-02 08:26:00,
2013-05-02 04:30:00,65.0,51.2,30.09,ESE,123,8.0,8.0,61,0.00,,---,0.00,VWS V14.01,2013-05-02 08:30:00,
2013-05-02 04:31:00,65.0,51.2,30.09,SE,124,7.0,8.0,61,0.00,,---,0.00,VWS V14.01,2013-05-02 08:31:00,
2013-05-02 04:36:00,64.7,51.4,30.09,SE,125,8.0,9.0,62,0.00,,---,0.00,VWS V14.01,2013-05-02 08:36:00,
2013-05-02 04:41:00,64.5,51.2,30.09,ESE,118,7.0,9.0,62,0.00,,---,0.00,VWS V14.01,2013-05-02 08:41:00,
2013-05-02 04:46:00,64.5,51.2,30.09,ESE,121,8.0,9.0,62,0.00,,---,0.00,VWS V14.01,2013-05-02 08:46:00,
2013-05-02 04:51:00,64.3,51.0,30.09,ESE,120,8.0,9.0,62,0.00,,---,0.00,VWS V14.01,2013-05-02 08:51:00,
2013-05-02 04:56:00,64.2,51.4,30.09,SE,125,7.0,9.0,63,0.00,,---,0.00,VWS V14.01,2013-05-02 08:56:00,
2013-05-02 05:00:00,64.0,51.2,30.09,ESE,122,7.0,9.0,63,0.00,,---,0.00,VWS V14.01,2013-05-02 09:00:00,
2013-05-02 05:01:00,63.9,51.1,30.09,ESE,118,7.0,8.0,63,0.00,,---,0.00,VWS V14.01,2013-05-02 09:01:00,
2013-05-02 05:06:00,63.9,51.1,30.09,ESE,120,8.0,9.0,63,0.00,,---,0.00,VWS V14.01,2013-05-02 09:06:00,
2013-05-02 05:11:00,63.9,51.1,30.09,SE,130,6.0,9.0,63,0.00,,---,0.00,VWS V14.01,2013-05-02 09:11:00,
2013-05-02 05:16:00,63.7,51.3,30.09,ESE,122,8.0,9.0,64,0.00,,---,0.00,VWS V14.01,2013-05-02 09:16:00,
2013-05-02 05:21:00,63.4,51.0,30.09,ESE,119,8.0,9.0,64,0.00,,---,0.00,VWS V14.01,2013-05-02 09:21:00,
2013-05-02 05:26:00,63.2,50.8,30.09,ESE,122,8.0,9.0,64,0.00,,---,0.00,VWS V14.01,2013-05-02 09:26:00,
2013-05-02 05:30:00,63.2,50.8,30.09,ESE,117,7.0,9.0,64,0.00,,---,0.00,VWS V14.01,2013-05-02 09:30:00,
2013-05-02 05:31:00,63.1,51.2,30.09,ESE,117,5.0,7.0,65,0.00,,---,0.00,VWS V14.01,2013-05-02 09:31:00,
2013-05-02 05:36:00,63.1,51.2,30.09,ESE,120,5.0,8.0,65,0.00,,---,0.00,VWS V14.01,2013-05-02 09:36:00,
2013-05-02 05:41:00,63.1,51.2,30.09,ESE,111,8.0,8.0,65,0.00,,---,0.00,VWS V14.01,2013-05-02 09:41:00,
2013-05-02 05:46:00,62.9,51.0,30.09,SE,124,5.0,8.0,65,0.00,,---,0.00,VWS V14.01,2013-05-02 09:46:00,
2013-05-02 05:51:00,62.9,51.0,30.09,ESE,115,5.0,8.0,65,0.00,,---,0.00,VWS V14.01,2013-05-02 09:51:00,
2013-05-02 05:56:00,62.7,50.8,30.09,ESE,119,7.0,9.0,65,0.00,,---,0.00,VWS V14.01,2013-05-02 09:56:00,
2013-05-02 06:00:00,62.6,50.7,30.09,ESE,119,7.0,9.0,65,0.00,,---,0.00,VWS V14.01,2013-05-02 10:00:00,
2013-05-02 06:01:00,62.6,50.7,30.09,ESE,110,7.0,8.0,65,0.00,,---,0.00,VWS V14.01,2013-05-02 10:01:00,
2013-05-02 06:06:00,62.4,50.9,30.09,SE,124,6.0,9.0,66,0.00,,---,0.00,VWS V14.01,2013-05-02 10:06:00,
2013-05-02 06:11:00,62.1,50.6,30.09,ESE,114,7.0,9.0,66,0.00,,---,0.00,VWS V14.01,2013-05-02 10:11:00,
2013-05-02 06:16:00,62.0,50.5,30.09,ESE,112,7.0,9.0,66,0.00,,---,0.00,VWS V14.01,2013-05-02 10:16:00,
2013-05-02 06:21:00,62.0,50.9,30.10,ESE,115,5.0,9.0,67,0.00,,---,0.00,VWS V14.01,2013-05-02 10:21:00,
2013-05-02 06:26:00,61.8,50.7,30.10,ESE,115,3.0,9.0,67,0.00,,---,0.00,VWS V14.01,2013-05-02 10:26:00,
2013-05-02 06:30:00,61.6,50.5,30.10,ESE,123,7.0,9.0,67,0.00,,---,0.00,VWS V14.01,2013-05-02 10:30:00,
2013-05-02 06:31:00,61.6,50.5,30.10,ESE,119,7.0,7.0,67,0.00,,---,0.00,VWS V14.01,2013-05-02 10:31:00,
2013-05-02 06:36:00,61.3,50.3,30.10,ESE,115,5.0,8.0,67,0.00,,---,0.00,VWS V14.01,2013-05-02 10:36:00,
2013-05-02 06:41:00,61.3,50.3,30.10,ESE,119,7.0,9.0,67,0.00,,---,0.00,VWS V14.01,2013-05-02 10:41:00,
2013-05-02 06:46:00,61.3,50.3,30.10,ESE,117,7.0,9.0,67,0.00,,---,0.00,VWS V14.01,2013-05-02 10:46:00,
2013-05-02 06:51:00,61.2,50.6,30.10,ESE,113,7.0,9.0,68,0.00,,---,0.00,VWS V14.01,2013-05-02 10:51:00,
2013-05-02 06:56:00,61.0,50.4,30.10,ESE,114,4.0,11.0,68,0.00,,---,0.00,VWS V14.01,2013-05-02 10:56:00,
2013-05-02 07:00:00,60.9,50.3,30.10,ESE,121,8.0,11.0,68,0.00,,---,0.00,VWS V14.01,2013-05-02 11:00:00,
2013-05-02 07:01:00,60.9,50.3,30.10,ESE,117,8.0,10.0,68,0.00,,---,0.00,VWS V14.01,2013-05-02 11:01:00,
2013-05-02 07:06:00,60.7,50.1,30.11,ESE,107,9.0,10.0,68,0.00,,---,0.00,VWS V14.01,2013-05-02 11:06:00,
2013-05-02 07:11:00,60.7,50.5,30.10,ESE,113,8.0,10.0,69,0.00,,---,0.00,VWS V14.01,2013-05-02 11:11:00,
2013-05-02 07:16:00,60.7,50.5,30.11,ESE,115,5.0,11.0,69,0.00,,---,0.00,VWS V14.01,2013-05-02 11:16:00,
2013-05-02 07:21:00,60.5,50.3,30.11,ESE,115,8.0,11.0,69,0.00,,---,0.00,VWS V14.01,2013-05-02 11:21:00,
2013-05-02 07:26:00,60.5,50.3,30.11,SE,124,6.0,11.0,69,0.00,,---,0.00,VWS V14.01,2013-05-02 11:26:00,
2013-05-02 07:30:00,60.5,50.3,30.12,ESE,103,8.0,11.0,69,0.00,,---,0.00,VWS V14.01,2013-05-02 11:30:00,
2013-05-02 07:31:00,60.5,50.3,30.12,ESE,123,5.0,8.0,69,0.00,,---,0.00,VWS V14.01,2013-05-02 11:31:00,
2013-05-02 07:36:00,60.7,50.5,30.12,ESE,120,8.0,10.0,69,0.00,,---,0.00,VWS V14.01,2013-05-02 11:36:00,
2013-05-02 07:41:00,60.7,50.5,30.12,SE,126,6.0,10.0,69,0.00,,---,0.00,VWS V14.01,2013-05-02 11:41:00,
2013-05-02 07:46:00,60.7,50.5,30.12,ESE,121,8.0,10.0,69,0.00,,---,0.00,VWS V14.01,2013-05-02 11:46:00,
2013-05-02 07:51:00,60.9,50.7,30.12,ESE,105,8.0,10.0,69,0.00,,---,0.00,VWS V14.01,2013-05-02 11:51:00,
2013-05-02 07:56:00,60.9,51.1,30.12,SE,127,7.0,10.0,70,0.00,,---,0.00,VWS V14.01,2013-05-02 11:56:00,
2013-05-02 08:00:00,61.2,51.0,30.12,SE,125,8.0,10.0,69,0.00,,---,0.00,VWS V14.01,2013-05-02 12:00:00,
2013-05-02 08:01:00,61.2,51.0,30.12,ESE,119,8.0,8.0,69,0.00,,---,0.00,VWS V14.01,2013-05-02 12:01:00,
2013-05-02 08:06:00,61.5,51.2,30.13,ESE,111,5.0,10.0,69,0.00,,---,0.00,VWS V14.01,2013-05-02 12:06:00,
2013-05-02 08:11:00,61.8,51.1,30.13,ESE,118,9.0,11.0,68,0.00,,---,0.00,VWS V14.01,2013-05-02 12:11:00,
2013-05-02 08:16:00,62.0,50.9,30.13,ESE,117,8.0,13.0,67,0.00,,---,0.00,VWS V14.01,2013-05-02 12:16:00,
2013-05-02 08:21:00,62.3,52.8,30.13,ESE,122,11.0,13.0,71,0.00,,---,0.00,VWS V14.01,2013-05-02 12:21:00,
2013-05-02 08:26:00,62.6,51.1,30.13,SE,130,9.0,13.0,66,0.00,,---,0.00,VWS V14.01,2013-05-02 12:26:00,
2013-05-02 08:30:00,62.6,51.1,30.13,SE,127,10.0,13.0,66,0.00,,---,0.00,VWS V14.01,2013-05-02 12:30:00,
2013-05-02 08:31:00,62.6,51.1,30.13,ESE,123,12.0,12.0,66,0.00,,---,0.00,VWS V14.01,2013-05-02 12:31:00,
2013-05-02 08:36:00,62.6,52.7,30.13,ESE,118,9.0,14.0,70,0.00,,---,0.00,VWS V14.01,2013-05-02 12:36:00,
2013-05-02 08:41:00,62.6,51.1,30.13,ESE,123,10.0,14.0,66,0.00,,---,0.00,VWS V14.01,2013-05-02 12:41:00,
2013-05-02 08:46:00,62.9,51.0,30.13,SE,130,7.0,14.0,65,0.00,,---,0.00,VWS V14.01,2013-05-02 12:46:00,
2013-05-02 08:51:00,63.5,51.1,30.13,SE,126,6.0,14.0,64,0.00,,---,0.00,VWS V14.01,2013-05-02 12:51:00,
2013-05-02 08:56:00,64.0,50.3,30.13,ESE,120,8.0,16.0,61,0.00,,---,0.00,VWS V14.01,2013-05-02 12:56:00,
2013-05-02 09:00:00,64.7,51.0,30.13,SSE,158,8.0,16.0,61,0.00,,---,0.00,VWS V14.01,2013-05-02 13:00:00,
2013-05-02 09:01:00,64.8,51.0,30.13,SE,141,9.0,11.0,61,0.00,,---,0.00,VWS V14.01,2013-05-02 13:01:00,
2013-05-02 09:06:00,65.2,51.0,30.13,SE,146,7.0,13.0,60,0.00,,---,0.00,VWS V14.01,2013-05-02 13:06:00,
2013-05-02 09:11:00,65.6,51.8,30.13,SSE,148,10.0,14.0,61,0.00,,---,0.00,VWS V14.01,2013-05-02 13:11:00,
2013-05-02 09:16:00,65.8,52.0,30.14,SE,146,11.0,14.0,61,0.00,,---,0.00,VWS V14.01,2013-05-02 13:16:00,
2013-05-02 09:21:00,66.1,51.8,30.14,SE,140,8.0,14.0,60,0.00,,---,0.00,VWS V14.01,2013-05-02 13:21:00,
2013-05-02 09:26:00,66.4,51.2,30.14,SE,139,6.0,14.0,58,0.00,,---,0.00,VWS V14.01,2013-05-02 13:26:00,
2013-05-02 09:30:00,66.4,51.2,30.14,SE,126,7.0,14.0,58,0.00,,---,0.00,VWS V14.01,2013-05-02 13:30:00,
2013-05-02 09:31:00,66.4,51.2,30.14,SE,130,7.0,9.0,58,0.00,,---,0.00,VWS V14.01,2013-05-02 13:31:00,
2013-05-02 09:36:00,66.8,50.6,30.14,SSE,148,11.0,15.0,56,0.00,,---,0.00,VWS V14.01,2013-05-02 13:36:00,
2013-05-02 09:41:00,66.6,50.9,30.14,SE,137,15.0,16.0,57,0.00,,---,0.00,VWS V14.01,2013-05-02 13:41:00,
2013-05-02 09:46:00,66.6,51.4,30.14,SE,137,7.0,16.0,58,0.00,,---,0.00,VWS V14.01,2013-05-02 13:46:00,
2013-05-02 09:51:00,66.6,51.4,30.14,SE,129,10.0,16.0,58,0.00,,---,0.00,VWS V14.01,2013-05-02 13:51:00,
2013-05-02 09:56:00,66.8,50.6,30.14,SSE,153,9.0,16.0,56,0.00,,---,0.00,VWS V14.01,2013-05-02 13:56:00,
2013-05-02 10:00:00,66.9,51.2,30.14,SE,141,12.0,16.0,57,0.00,,---,0.00,VWS V14.01,2013-05-02 14:00:00,
2013-05-02 10:01:00,66.9,51.2,30.14,SE,134,12.0,12.0,57,0.00,,---,0.00,VWS V14.01,2013-05-02 14:01:00,
2013-05-02 10:06:00,67.1,50.9,30.14,SE,132,7.0,13.0,56,0.00,,---,0.00,VWS V14.01,2013-05-02 14:06:00,
2013-05-02 10:11:00,67.6,51.8,30.14,South,169,2.0,13.0,57,0.00,,---,0.00,VWS V14.01,2013-05-02 14:11:00,
2013-05-02 10:16:00,67.9,51.6,30.14,SSE,147,7.0,13.0,56,0.00,,---,0.00,VWS V14.01,2013-05-02 14:16:00,
2013-05-02 10:21:00,68.1,50.3,30.14,SSE,147,4.0,14.0,53,0.00,,---,0.00,VWS V14.01,2013-05-02 14:21:00,
2013-05-02 10:26:00,67.9,50.2,30.14,ESE,123,9.0,15.0,53,0.00,,---,0.00,VWS V14.01,2013-05-02 14:26:00,
2013-05-02 10:30:00,68.4,50.6,30.13,SSE,158,5.0,15.0,53,0.00,,---,0.00,VWS V14.01,2013-05-02 14:30:00,
2013-05-02 10:31:00,68.4,50.6,30.14,South,190,1.0,5.0,53,0.00,,---,0.00,VWS V14.01,2013-05-02 14:31:00,
2013-05-02 10:36:00,68.8,51.0,30.13,SSE,161,10.0,10.0,53,0.00,,---,0.00,VWS V14.01,2013-05-02 14:36:00,
2013-05-02 10:41:00,69.1,50.8,30.14,SSE,161,2.0,10.0,52,0.00,,---,0.00,VWS V14.01,2013-05-02 14:41:00,
2013-05-02 10:46:00,69.4,50.5,30.13,SSE,161,8.0,10.0,51,0.00,,---,0.00,VWS V14.01,2013-05-02 14:46:00,
2013-05-02 10:51:00,69.9,51.0,30.13,South,181,1.0,12.0,51,0.00,,---,0.00,VWS V14.01,2013-05-02 14:51:00,
2013-05-02 10:56:00,69.6,50.7,30.13,South,175,2.0,12.0,51,0.00,,---,0.00,VWS V14.01,2013-05-02 14:56:00,
2013-05-02 11:04:00,68.8,50.5,30.13,SSW,199,2.0,2.0,52,0.00,,---,0.00,VWS V14.01,2013-05-02 15:04:00,
2013-05-02 11:09:00,68.4,50.1,30.13,South,174,0.0,11.0,52,0.00,,---,0.00,VWS V14.01,2013-05-02 15:09:00,
2013-05-02 11:14:00,68.8,51.0,30.13,SSE,160,7.0,11.0,53,0.00,,---,0.00,VWS V14.01,2013-05-02 15:14:00,
2013-05-02 11:19:00,69.3,50.4,30.13,SSE,159,5.0,11.0,51,0.00,,---,0.00,VWS V14.01,2013-05-02 15:19:00,
2013-05-02 11:24:00,69.4,51.0,30.13,SE,137,10.0,12.0,52,0.00,,---,0.00,VWS V14.01,2013-05-02 15:24:00,
2013-05-02 11:29:00,69.6,51.2,30.13,SE,142,10.0,16.0,52,0.00,,---,0.00,VWS V14.01,2013-05-02 15:29:00,
2013-05-02 11:30:00,69.4,50.0,30.13,SE,145,13.0,16.0,50,0.00,,---,0.00,VWS V14.01,2013-05-02 15:30:00,
2013-05-02 11:34:00,69.3,51.5,30.12,SSE,157,3.0,13.0,53,0.00,,---,0.00,VWS V14.01,2013-05-02 15:34:00,
2013-05-02 11:39:00,69.6,50.7,30.13,SSW,205,4.0,13.0,51,0.00,,---,0.00,VWS V14.01,2013-05-02 15:39:00,
2013-05-02 11:44:00,69.9,51.0,30.12,SSE,159,3.0,13.0,51,0.00,,---,0.00,VWS V14.01,2013-05-02 15:44:00,
2013-05-02 11:49:00,70.3,50.8,30.12,South,179,2.0,13.0,50,0.00,,---,0.00,VWS V14.01,2013-05-02 15:49:00,
2013-05-02 11:54:00,70.1,51.7,30.12,SSE,157,8.0,13.0,52,0.00,,---,0.00,VWS V14.01,2013-05-02 15:54:00,
2013-05-02 11:59:00,69.9,52.0,30.12,SSE,160,6.0,13.0,53,0.00,,---,0.00,VWS V14.01,2013-05-02 15:59:00,
2013-05-02 12:00:00,69.9,50.4,30.12,SSE,158,1.0,13.0,50,0.00,,---,0.00,VWS V14.01,2013-05-02 16:00:00,
2013-05-02 12:04:00,70.3,51.3,30.12,South,169,2.0,8.0,51,0.00,,---,0.00,VWS V14.01,2013-05-02 16:04:00,
2013-05-02 12:09:00,70.4,52.0,30.12,SSE,164,2.0,11.0,52,0.00,,---,0.00,VWS V14.01,2013-05-02 16:09:00,
2013-05-02 12:14:00,70.4,50.9,30.12,SSW,205,3.0,11.0,50,0.00,,---,0.00,VWS V14.01,2013-05-02 16:14:00,
2013-05-02 12:19:00,70.4,51.4,30.12,SSE,163,2.0,11.0,51,0.00,,---,0.00,VWS V14.01,2013-05-02 16:19:00,
2013-05-02 12:24:00,70.6,51.6,30.12,SSE,151,3.0,11.0,51,0.00,,---,0.00,VWS V14.01,2013-05-02 16:24:00,
2013-05-02 12:29:00,70.8,54.3,30.12,SSE,153,3.0,11.0,56,0.00,,---,0.00,VWS V14.01,2013-05-02 16:29:00,
2013-05-02 12:30:00,70.8,51.3,30.12,SE,144,3.0,11.0,50,0.00,,---,0.00,VWS V14.01,2013-05-02 16:30:00,
2013-05-02 12:34:00,71.1,54.1,30.12,SSW,208,5.0,6.0,55,0.00,,---,0.00,VWS V14.01,2013-05-02 16:34:00,
2013-05-02 12:39:00,70.9,52.9,30.12,SSW,193,4.0,6.0,53,0.00,,---,0.00,VWS V14.01,2013-05-02 16:39:00,
2013-05-02 12:44:00,70.6,52.1,30.12,SSE,148,5.0,8.0,52,0.00,,---,0.00,VWS V14.01,2013-05-02 16:44:00,
2013-05-02 12:49:00,70.9,52.4,30.12,SE,136,1.0,10.0,52,0.00,,---,0.00,VWS V14.01,2013-05-02 16:49:00,
2013-05-02 12:54:00,71.5,52.4,30.12,SSE,158,8.0,10.0,51,0.00,,---,0.00,VWS V14.01,2013-05-02 16:54:00,
2013-05-02 12:59:00,71.6,52.0,30.11,South,173,1.0,10.0,50,0.00,,---,0.00,VWS V14.01,2013-05-02 16:59:00,
2013-05-02 13:00:00,71.6,51.5,30.11,SE,130,3.0,10.0,49,0.00,,---,0.00,VWS V14.01,2013-05-02 17:00:00,
2013-05-02 13:04:00,71.6,52.0,30.11,SSE,148,11.0,11.0,50,0.00,,---,0.00,VWS V14.01,2013-05-02 17:04:00,
2013-05-02 13:09:00,71.6,49.2,30.11,SE,138,10.0,11.0,45,0.00,,---,0.00,VWS V14.01,2013-05-02 17:09:00,
2013-05-02 13:14:00,71.8,51.1,30.11,SSE,155,6.0,11.0,48,0.00,,---,0.00,VWS V14.01,2013-05-02 17:14:00,
2013-05-02 13:19:00,72.3,51.0,30.10,SE,133,8.0,11.0,47,0.00,,---,0.00,VWS V14.01,2013-05-02 17:19:00,
2013-05-02 13:24:00,72.3,51.0,30.10,SSE,157,4.0,11.0,47,0.00,,---,0.00,VWS V14.01,2013-05-02 17:24:00,
2013-05-02 13:29:00,72.5,50.0,30.10,SE,146,4.0,11.0,45,0.00,,---,0.00,VWS V14.01,2013-05-02 17:29:00,
2013-05-02 13:30:00,72.7,50.8,30.10,SSE,157,4.0,11.0,46,0.00,,---,0.00,VWS V14.01,2013-05-02 17:30:00,
2013-05-02 13:34:00,72.7,50.8,30.10,South,169,0.0,6.0,46,0.00,,---,0.00,VWS V14.01,2013-05-02 17:34:00,
2013-05-02 13:39:00,72.8,50.8,30.10,SE,124,6.0,9.0,46,0.00,,---,0.00,VWS V14.01,2013-05-02 17:39:00,
2013-05-02 13:44:00,73.0,52.2,30.10,ESE,107,2.0,9.0,48,0.00,,---,0.00,VWS V14.01,2013-05-02 17:44:00,
2013-05-02 13:49:00,72.5,50.0,30.10,ESE,123,11.0,14.0,45,0.00,,---,0.00,VWS V14.01,2013-05-02 17:49:00,
2013-05-02 13:54:00,72.3,49.8,30.10,ESE,120,1.0,14.0,45,0.00,,---,0.00,VWS V14.01,2013-05-02 17:54:00,
2013-05-02 13:59:00,73.2,52.9,30.09,SE,136,7.0,14.0,49,0.00,,---,0.00,VWS V14.01,2013-05-02 17:59:00,
2013-05-02 14:00:00,73.2,52.9,30.09,SE,144,9.0,14.0,49,0.00,,---,0.00,VWS V14.01,2013-05-02 18:00:00,
2013-05-02 14:04:00,73.3,50.1,30.09,ESE,121,12.0,12.0,44,0.00,,---,0.00,VWS V14.01,2013-05-02 18:04:00,
2013-05-02 14:09:00,73.3,46.9,30.09,SE,124,8.0,13.0,39,0.00,,---,0.00,VWS V14.01,2013-05-02 18:09:00,
2013-05-02 14:14:00,73.0,47.9,30.09,ESE,110,9.0,15.0,41,0.00,,---,0.00,VWS V14.01,2013-05-02 18:14:00,
2013-05-02 14:19:00,72.8,52.0,30.09,ESE,110,5.0,15.0,48,0.00,,---,0.00,VWS V14.01,2013-05-02 18:19:00,
2013-05-02 14:24:00,73.0,48.6,30.09,SSE,157,2.0,15.0,42,0.00,,---,0.00,VWS V14.01,2013-05-02 18:24:00,
2013-05-02 14:29:00,73.5,49.7,30.09,ESE,119,7.0,15.0,43,0.00,,---,0.00,VWS V14.01,2013-05-02 18:29:00,
2013-05-02 14:30:00,73.5,50.3,30.09,SE,126,8.0,15.0,44,0.00,,---,0.00,VWS V14.01,2013-05-02 18:30:00,
2013-05-02 14:34:00,73.5,49.0,30.09,SSE,166,0.0,15.0,42,0.00,,---,0.00,VWS V14.01,2013-05-02 18:34:00,
2013-05-02 14:39:00,73.9,50.0,30.09,SSE,152,2.0,15.0,43,0.00,,---,0.00,VWS V14.01,2013-05-02 18:39:00,
2013-05-02 14:44:00,73.9,50.0,30.09,SE,124,11.0,15.0,43,0.00,,---,0.00,VWS V14.01,2013-05-02 18:44:00,
2013-05-02 14:49:00,73.9,48.7,30.08,SE,130,12.0,15.0,41,0.00,,---,0.00,VWS V14.01,2013-05-02 18:49:00,
2013-05-02 14:54:00,73.5,49.0,30.09,SE,138,6.0,15.0,42,0.00,,---,0.00,VWS V14.01,2013-05-02 18:54:00,
2013-05-02 14:59:00,73.9,49.4,30.08,SE,140,8.0,15.0,42,0.00,,---,0.00,VWS V14.01,2013-05-02 18:59:00,
2013-05-02 15:00:00,73.9,50.0,30.08,ESE,122,13.0,15.0,43,0.00,,---,0.00,VWS V14.01,2013-05-02 19:00:00,
2013-05-02 15:04:00,73.9,50.0,30.08,SSE,168,12.0,13.0,43,0.00,,---,0.00,VWS V14.01,2013-05-02 19:04:00,
2013-05-02 15:09:00,74.0,49.5,30.08,SE,140,3.0,13.0,42,0.00,,---,0.00,VWS V14.01,2013-05-02 19:09:00,
2013-05-02 15:14:00,74.0,50.1,30.08,SE,146,6.0,13.0,43,0.00,,---,0.00,VWS V14.01,2013-05-02 19:14:00,
2013-05-02 15:19:00,74.0,51.3,30.08,SSE,148,11.0,13.0,45,0.00,,---,0.00,VWS V14.01,2013-05-02 19:19:00,
2013-05-02 15:24:00,74.2,50.3,30.08,SE,138,7.0,13.0,43,0.00,,---,0.00,VWS V14.01,2013-05-02 19:24:00,
2013-05-02 15:29:00,74.7,49.5,30.07,South,176,6.0,13.0,41,0.00,,---,0.00,VWS V14.01,2013-05-02 19:29:00,
2013-05-02 15:30:00,74.9,50.3,30.07,SSE,161,1.0,13.0,42,0.00,,---,0.00,VWS V14.01,2013-05-02 19:30:00,
2013-05-02 15:34:00,74.6,46.6,30.07,SSE,158,5.0,14.0,37,0.00,,---,0.00,VWS V14.01,2013-05-02 19:34:00,
2013-05-02 15:39:00,74.6,48.0,30.07,ESE,119,3.0,14.0,39,0.00,,---,0.00,VWS V14.01,2013-05-02 19:39:00,
2013-05-02 15:44:00,74.6,48.0,30.07,ESE,119,7.0,17.0,39,0.00,,---,0.00,VWS V14.01,2013-05-02 19:44:00,
2013-05-02 15:49:00,74.4,47.2,30.06,SE,142,5.0,17.0,38,0.00,,---,0.00,VWS V14.01,2013-05-02 19:49:00,
2013-05-02 15:54:00,74.9,48.3,30.06,SE,133,8.0,17.0,39,0.00,,---,0.00,VWS V14.01,2013-05-02 19:54:00,
2013-05-02 15:59:00,75.1,48.5,30.06,SE,137,13.0,17.0,39,0.00,,---,0.00,VWS V14.01,2013-05-02 19:59:00,
2013-05-02 16:00:00,75.1,48.5,30.06,SE,145,9.0,17.0,39,0.00,,---,0.00,VWS V14.01,2013-05-02 20:00:00,
2013-05-02 16:04:00,74.6,49.4,30.06,ESE,115,8.0,9.0,41,0.00,,---,0.00,VWS V14.01,2013-05-02 20:04:00,
2013-05-02 16:09:00,74.0,49.5,30.06,ESE,121,7.0,9.0,42,0.00,,---,0.00,VWS V14.01,2013-05-02 20:09:00,
2013-05-02 16:14:00,74.6,48.0,30.05,ESE,123,8.0,9.0,39,0.00,,---,0.00,VWS V14.01,2013-05-02 20:14:00,
2013-05-02 16:19:00,74.7,48.8,30.05,SE,128,5.0,14.0,40,0.00,,---,0.00,VWS V14.01,2013-05-02 20:19:00,
2013-05-02 16:24:00,74.2,50.3,30.05,SE,136,11.0,17.0,43,0.00,,---,0.00,VWS V14.01,2013-05-02 20:24:00,
2013-05-02 16:29:00,74.4,48.5,30.05,SE,126,10.0,17.0,40,0.00,,---,0.00,VWS V14.01,2013-05-02 20:29:00,
2013-05-02 16:30:00,74.4,49.2,30.05,ESE,117,12.0,17.0,41,0.00,,---,0.00,VWS V14.01,2013-05-02 20:30:00,
2013-05-02 16:34:00,74.6,50.0,30.05,SE,133,5.0,12.0,42,0.00,,---,0.00,VWS V14.01,2013-05-02 20:34:00,
2013-05-02 16:39:00,74.6,50.0,30.04,SE,138,14.0,15.0,42,0.00,,---,0.00,VWS V14.01,2013-05-02 20:39:00,
2013-05-02 16:44:00,74.6,48.7,30.04,ESE,119,12.0,15.0,40,0.00,,---,0.00,VWS V14.01,2013-05-02 20:44:00,
2013-05-02 16:49:00,74.7,48.8,30.04,ESE,119,12.0,15.0,40,0.00,,---,0.00,VWS V14.01,2013-05-02 20:49:00,
2013-05-02 16:54:00,74.6,48.7,30.04,SSE,163,4.0,15.0,40,0.00,,---,0.00,VWS V14.01,2013-05-02 20:54:00,
2013-05-02 16:59:00,74.7,48.8,30.04,ESE,120,13.0,15.0,40,0.00,,---,0.00,VWS V14.01,2013-05-02 20:59:00,
2013-05-02 17:00:00,74.9,50.3,30.04,SE,128,7.0,15.0,42,0.00,,---,0.00,VWS V14.01,2013-05-02 21:00:00,
2013-05-02 17:04:00,74.9,48.3,30.04,SE,144,3.0,8.0,39,0.00,,---,0.00,VWS V14.01,2013-05-02 21:04:00,
2013-05-02 17:09:00,74.7,48.8,30.04,SE,136,8.0,13.0,40,0.00,,---,0.00,VWS V14.01,2013-05-02 21:09:00,
2013-05-02 17:14:00,74.4,47.9,30.04,SE,146,9.0,13.0,39,0.00,,---,0.00,VWS V14.01,2013-05-02 21:14:00,
2013-05-02 17:19:00,74.2,49.0,30.04,SE,137,10.0,13.0,41,0.00,,---,0.00,VWS V14.01,2013-05-02 21:19:00,
2013-05-02 17:24:00,74.0,48.8,30.04,SSE,148,3.0,13.0,41,0.00,,---,0.00,VWS V14.01,2013-05-02 21:24:00,
2013-05-02 17:29:00,73.9,50.0,30.03,SE,137,10.0,14.0,43,0.00,,---,0.00,VWS V14.01,2013-05-02 21:29:00,
2013-05-02 17:30:00,73.9,50.0,30.03,SE,142,6.0,14.0,43,0.00,,---,0.00,VWS V14.01,2013-05-02 21:30:00,
2013-05-02 17:34:00,73.9,50.0,30.03,ESE,121,11.0,11.0,43,0.00,,---,0.00,VWS V14.01,2013-05-02 21:34:00,
2013-05-02 17:39:00,73.9,49.4,30.03,SE,134,7.0,13.0,42,0.00,,---,0.00,VWS V14.01,2013-05-02 21:39:00,
2013-05-02 17:44:00,73.7,49.2,30.03,ESE,123,10.0,13.0,42,0.00,,---,0.00,VWS V14.01,2013-05-02 21:44:00,
2013-05-02 17:49:00,73.7,48.6,30.03,SE,136,7.0,13.0,41,0.00,,---,0.00,VWS V14.01,2013-05-02 21:49:00,
2013-05-02 17:54:00,73.7,48.6,30.03,ESE,122,9.0,13.0,41,0.00,,---,0.00,VWS V14.01,2013-05-02 21:54:00,
2013-05-02 17:59:00,73.5,49.7,30.02,ESE,115,9.0,13.0,43,0.00,,---,0.00,VWS V14.01,2013-05-02 21:59:00,
2013-05-02 18:00:00,73.5,50.3,30.02,SE,125,8.0,13.0,44,0.00,,---,0.00,VWS V14.01,2013-05-02 22:00:00,
2013-05-02 18:04:00,73.5,50.9,30.02,ESE,119,11.0,12.0,45,0.00,,---,0.00,VWS V14.01,2013-05-02 22:04:00,
2013-05-02 18:09:00,73.5,50.3,30.02,ESE,116,5.0,14.0,44,0.00,,---,0.00,VWS V14.01,2013-05-02 22:09:00,
2013-05-02 18:14:00,73.5,50.3,30.02,SE,134,6.0,14.0,44,0.00,,---,0.00,VWS V14.01,2013-05-02 22:14:00,
2013-05-02 18:19:00,73.7,50.5,30.02,SE,137,7.0,14.0,44,0.00,,---,0.00,VWS V14.01,2013-05-02 22:19:00,
2013-05-02 18:30:00,73.7,48.6,30.02,SE,135,9.0,15.0,41,0.00,,---,0.00,VWS V14.01,2013-05-02 22:30:00,
2013-05-02 19:00:00,73.0,50.4,30.02,SE,135,9.0,14.0,45,0.00,,---,0.00,VWS V14.01,2013-05-02 23:00:00,
2013-05-02 19:30:00,72.0,51.3,30.01,SE,135,7.0,12.0,48,0.00,,---,0.00,VWS V14.01,2013-05-02 23:30:00,
2013-05-02 20:30:00,70.9,52.4,30.02,SSE,158,3.0,6.0,52,0.00,,---,0.00,VWS V14.01,2013-05-03 00:30:00,
2013-05-02 21:00:00,69.8,52.9,30.03,SSE,158,5.0,13.0,55,0.00,,---,0.00,VWS V14.01,2013-05-03 01:00:00,
2013-05-02 21:38:00,69.8,52.9,30.03,SSE,158,5.0,13.0,55,0.00,,---,0.00,VWS V14.01,2013-05-03 01:38:00,
2013-05-02 21:43:00,67.9,53.5,30.03,SE,146,7.0,8.0,60,0.00,,---,0.00,VWS V14.01,2013-05-03 01:43:00,
2013-05-02 21:48:00,67.8,53.4,30.04,SSE,147,6.0,8.0,60,0.00,,---,0.00,VWS V14.01,2013-05-03 01:48:00,
2013-05-02 21:53:00,67.8,53.4,30.04,SE,143,6.0,8.0,60,0.00,,---,0.00,VWS V14.01,2013-05-03 01:53:00,
2013-05-02 21:58:00,67.6,53.2,30.04,SE,144,5.0,8.0,60,0.00,,---,0.00,VWS V14.01,2013-05-03 01:58:00,
2013-05-02 22:03:00,67.6,53.2,30.04,SSE,148,6.0,8.0,60,0.00,,---,0.00,VWS V14.01,2013-05-03 02:03:00,
2013-05-02 22:08:00,67.8,53.4,30.04,SE,140,6.0,8.0,60,0.00,,---,0.00,VWS V14.01,2013-05-03 02:08:00,
2013-05-02 22:13:00,67.8,53.4,30.04,SE,146,6.0,8.0,60,0.00,,---,0.00,VWS V14.01,2013-05-03 02:13:00,
2013-05-02 22:18:00,67.6,53.7,30.04,SE,145,6.0,8.0,61,0.00,,---,0.00,VWS V14.01,2013-05-03 02:18:00,
2013-05-02 22:23:00,67.1,53.7,30.03,SE,136,6.0,8.0,62,0.00,,---,0.00,VWS V14.01,2013-05-03 02:23:00,
2013-05-02 22:28:00,66.9,53.5,30.03,SE,143,6.0,8.0,62,0.00,,---,0.00,VWS V14.01,2013-05-03 02:28:00,
2013-05-02 22:33:00,66.9,53.5,30.03,SSE,152,7.0,8.0,62,0.00,,---,0.00,VWS V14.01,2013-05-03 02:33:00,
2013-05-02 22:38:00,66.8,53.4,30.03,SE,146,5.0,8.0,62,0.00,,---,0.00,VWS V14.01,2013-05-03 02:38:00,
2013-05-02 22:43:00,66.6,53.6,30.03,SE,142,6.0,8.0,63,0.00,,---,0.00,VWS V14.01,2013-05-03 02:43:00,
2013-05-02 22:48:00,66.4,53.4,30.03,SE,138,6.0,8.0,63,0.00,,---,0.00,VWS V14.01,2013-05-03 02:48:00,
2013-05-02 22:53:00,66.4,53.4,30.03,SE,138,7.0,8.0,63,0.00,,---,0.00,VWS V14.01,2013-05-03 02:53:00,
2013-05-02 22:58:00,66.4,53.4,30.03,SE,130,6.0,8.0,63,0.00,,---,0.00,VWS V14.01,2013-05-03 02:58:00,
2013-05-02 23:03:00,66.6,53.2,30.03,SE,140,6.0,7.0,62,0.00,,---,0.00,VWS V14.01,2013-05-03 03:03:00,
2013-05-02 23:08:00,66.6,53.2,30.03,SE,132,5.0,7.0,62,0.00,,---,0.00,VWS V14.01,2013-05-03 03:08:00,
2013-05-02 23:13:00,66.6,53.2,30.03,SE,135,6.0,7.0,62,0.00,,---,0.00,VWS V14.01,2013-05-03 03:13:00,
2013-05-02 23:18:00,66.4,53.4,30.03,SE,126,4.0,7.0,63,0.00,,---,0.00,VWS V14.01,2013-05-03 03:18:00,
2013-05-02 23:23:00,66.4,53.4,30.03,ESE,117,5.0,7.0,63,0.00,,---,0.00,VWS V14.01,2013-05-03 03:23:00,
2013-05-02 23:28:00,66.1,53.6,30.03,ESE,123,5.0,7.0,64,0.00,,---,0.00,VWS V14.01,2013-05-03 03:28:00,
2013-05-02 23:33:00,66.0,53.5,30.03,ESE,121,5.0,7.0,64,0.00,,---,0.00,VWS V14.01,2013-05-03 03:33:00,
2013-05-02 23:38:00,66.0,53.5,30.03,ESE,121,5.0,7.0,64,0.00,,---,0.00,VWS V14.01,2013-05-03 03:38:00,
2013-05-02 23:43:00,65.6,53.5,30.03,ESE,120,7.0,7.0,65,0.00,,---,0.00,VWS V14.01,2013-05-03 03:43:00,
2013-05-02 23:48:00,65.5,53.8,30.03,ESE,121,7.0,8.0,66,0.00,,---,0.00,VWS V14.01,2013-05-03 03:48:00,
2013-05-02 23:53:00,65.5,53.4,30.03,ESE,119,7.0,8.0,65,0.00,,---,0.00,VWS V14.01,2013-05-03 03:53:00,
2013-05-02 23:58:00,65.5,53.8,30.02,ESE,120,8.0,8.0,66,0.00,,---,0.00,VWS V14.01,2013-05-03 03:58:00,